This demonstration page uses our WeatherBlox Daily Observations layout. Learn more.

Left ArrowRight Arrow

38.80484, -77.04692

Hourly Observations for February 6, 2016

Temp ( °F °C ) Dew Point ( °F °C ) Humidity (%) Winds ( mph kmh ) Pressure ( in mb ) Visibility ( mi km ) Precip ( " mm )
12:52 am 00:52 Mostly Clear 35 1.7 17 -8.3 48 48 NNW 5 7 30.41 1030 10 16 0.00 0.00
1:52 am 01:52 Clear 33 0.6 22 -5.6 64 64 Calm 30.42 1030 10 16 0.00 0.00
2:52 am 02:52 Clear 31 -0.6 21 -6.1 67 67 SW 5 7 30.42 1030 10 16 0.00 0.00
3:52 am 03:52 Clear 30 -1.1 22 -5.6 72 72 SSW 5 7 30.43 1030 10 16 0.00 0.00
4:52 am 04:52 Clear 30 -1.1 21 -6.1 69 69 SW 5 7 30.43 1031 10 16 0.00 0.00
5:52 am 05:52 Partly Cloudy 30 -1.1 21 -6.1 69 69 SW 3 6 30.45 1031 10 16 0.00 0.00
6:52 am 06:52 Clear 30 -1.1 21 -6.1 69 69 SW 3 6 30.45 1031 10 16 0.00 0.00
7:52 am 07:52 Mostly Cloudy 30 -1.1 24 -4.4 79 79 Calm 30.47 1032 10 16 0.00 0.00
8:52 am 08:52 Mostly Cloudy 33 0.6 24 -4.4 70 70 S 3 6 30.47 1032 10 16 0.00 0.00
9:52 am 09:52 Mostly Cloudy 35 1.7 22 -5.6 59 59 SSW 7 11 30.48 1032 10 16 0.00 0.00
10:52 am 10:52 Mostly Cloudy 38 3.3 22 -5.6 52 52 S 9 15 30.47 1032 10 16 0.00 0.00
11:52 am 11:52 Mostly Cloudy 41 5 24 -4.4 51 51 SSE 10 17 30.44 1031 10 16 0.00 0.00
12:52 pm 12:52 Mostly Cloudy 42 5.6 25 -3.9 51 51 S 12 19 30.39 1029 10 16 0.00 0.00
1:52 pm 13:52 Mostly Cloudy 42 5.6 21 -6.1 43 43 S 9 15 30.35 1028 10 16 0.00 0.00
2:52 pm 14:52 Mostly Cloudy 42 5.6 20 -6.7 41 41 SSW 10 17 30.33 1027 10 16 0.00 0.00
3:52 pm 15:52 Mostly Cloudy 43 6.1 23 -5 45 45 S 10 17 30.31 1026 10 16 0.00 0.00
4:52 pm 16:52 Partly Cloudy 42 5.6 21 -6.1 43 43 S 6 9 30.32 1027 10 16 0.00 0.00
5:52 pm 17:52 Mostly Cloudy 41 5 18 -7.8 39 39 SSW 5 7 30.32 1027 10 16 0.00 0.00
6:52 pm 18:52 Mostly Cloudy 39 3.9 27 -2.8 62 62 S 7 11 30.31 1026 10 16 0.00 0.00
7:52 pm 19:52 Mostly Cloudy 38 3.3 23 -5 55 55 SSW 8 13 30.32 1027 10 16 0.00 0.00
8:52 pm 20:52 Mostly Cloudy 38 3.3 25 -3.9 60 60 S 8 13 30.32 1027 10 16 0.00 0.00
9:52 pm 21:52 Mostly Cloudy 37 2.8 25 -3.9 62 62 S 8 13 30.32 1027 10 16 0.00 0.00
10:52 pm 22:52 Partly Cloudy 37 2.8 25 -3.9 62 62 SSE 3 6 30.29 1026 10 16 0.00 0.00
11:52 pm 23:52 Partly Cloudy 35 1.7 25 -3.9 67 67 SE 5 7 30.27 1025 10 16 0.00 0.00

Powered by AerisWeather